Regional Weather Roundup
Issued by NWS Charleston, SC

Home | Current Version | Previous Version | Text Only | Print | Product List | Glossary On
Versions: 1 2 3 4 5 6 7 8 9 10 11 12 13 14 15 16 17 18 19 20 21 22 23 24 25 26 27 28 29 30 31 32 33 34 35 36 37 38 39 40 41 42 43 44 45 46 47 48 49 50
000
ASUS42 KCHS 240727
RWRCHS

REGIONAL WEATHER ROUNDUP
NATIONAL WEATHER SERVICE CHARLESTON SC
200 AM EST FRI NOV 24 2017

NOTE: "FAIR" INDICATES FEW OR NO CLOUDS BELOW 12,000 FEET WITH NO
SIGNIFICANT WEATHER AND/OR OBSTRUCTIONS TO VISIBILITY.

NOT ALL STATIONS ARE QUALITY CONTROLLED. USE DATA WITH CAUTION...
ESPECIALLY DEWPOINT OBSERVATIONS.

SCZ027-030-031-034>040-042>050-240800-
...SOUTHEAST SOUTH CAROLINA...

CITY           SKY/WX    TMP DP  RH WIND       PRES   REMARKS
N CHARLESTON   MOCLDY    44  42  93 N10       29.98F
WATERFRONT PRK   N/A     48  46  93 N10       29.82F
JOHNS ISLAND   PTSUNNY   48  45  87 N9        29.96F
PINOPOLIS        N/A     46  43  87 NE12      29.93F
MONCKS CORNER  FAIR      43  39  87 N7        30.00S
SUMMERVILLE    FAIR      43  39  87 N7        30.01S
BEAUFORT MCAS  CLOUDY    47  44  90 N10       29.98
BEAUFORT ARPT  CLOUDY    46  43  87 N10       29.96F FOG
HILTON HEAD IS CLOUDY    48  45  87 N13       29.96F
WALTERBORO     SUNNY     41  37  87 N5        30.00F
ALLENDALE      FAIR      41  36  81 N7        30.00S

...SOUTHERN MIDLANDS AND PEE DEE...

CITY           SKY/WX    TMP DP  RH WIND       PRES   REMARKS
GEORGETOWN     FAIR      43  43 100 N7        30.00F
KINGSTREE      FAIR      37  36  93 CALM      30.03S
ORANGEBURG     CLEAR     40  34  79 NE6       30.02F WCI  36
BARNWELL         N/A     41  36  81 CALM      30.02S
AIKEN          FAIR      34  32  93 NE3       30.05F
MANNING        FAIR      37  37 100 MISG      30.02S
COLUMBIA       PTCLDY    33  31  92 CALM      30.04F
SUMTER         PTCLDY    36  31  82 N7        30.02F WCI  30
FLORENCE       CLEAR     36  33  89 N5        30.04F WCI  32
MYRTLE BEACH   CLOUDY    44  42  93 N9        30.02S
N MYRTLE BEACH CLOUDY    45  41  86 N7        30.01S

$$

GAZ063-065-086>088-099>101-113>116-118-119-134>141-150-240800-
...SOUTHEAST GEORGIA...

CITY           SKY/WX    TMP DP  RH WIND       PRES   REMARKS
SAVANNAH ARPT  CLOUDY    46  43  89 N9        29.97F
HUNTER AAF     PTCLDY    47  43  85 N6        29.94F
FORT STEWART   CLOUDY    47  42  82 N6        29.95F
STATESBORO     CLEAR     42  37  81 N3        30.00S
SYLVANIA       SUNNY     42  39  89 NE7       30.01S
CLAXTON        FAIR      45  41  86 CALM      29.99S

...CSRA...CENTRAL AND FAR SOUTHEAST GEORGIA...

CITY           SKY/WX    TMP DP  RH WIND       PRES   REMARKS
THOMSON        CLEAR     34  32  93 CALM      30.08S
AUGUSTA-BUSH   CLEAR     35  34  96 CALM      30.03S
AUGUSTA-DANIEL CLEAR     42  36  79 N5        30.03F
SWAINSBORO     FAIR      43  37  81 NE7       30.01S
VIDALIA        PTCLDY    45  41  87 N6        29.99F
EASTMAN        FAIR      45  34  65 CALM      30.03S
HAZLEHURST     FAIR      47  44  87 N6        29.98S
ALMA           CLEAR     48  43  82 N6        29.96F
WAYCROSS       MOCLDY    50  47  90 N10       29.95F
JESUP          CLOUDY    50  43  76 CALM      29.96S
BAXLEY         FAIR      45  45 100 N6        29.97F
BRUNSWICK      MOCLDY    48  45  87 N7        29.94F
SAINT SIMONS   CLOUDY    51  49  92 N10       29.92F

$$

SCZ027-028-034-036>038-045-046-048>050-GAZ119-141-240800-
...LAKE AND SUPPLEMENTAL COASTAL OBSERVATIONS...

STATION/POSITION TIME  TEMP    WIND        PRES    WAVE   SWELL
                       AIR SEA DIR/SP/G            HT/PER HT/PER/DIR
                 (UTC) (F)     (DEG/KT/KT) (MB)    (FT/S) (FT/S/D)
WINYAH BAY       0630   46     360/  5     1016.0S
LAKE MURRAY      0630   42      CALM  /  2 1016.9S
ACE BASIN NERRS  0645   45     360/  3     1015.0S
FORT PULASKI     0700   50 61   10/ 12/ 15 1014.6
SAPELO ISLAND    0700   51     360/ 11     1013.0

$$

ANZ835-935-AMZ111-154-330-350-352-354-370-450-454-472-240800-
...C-MAN AND BUOY OBSERVATIONS...

STATION/POSITION TIME  TEMP    WIND        PRES    WAVE   SWELL
                       AIR SEA DIR/SP/G            HT/PER HT/PER/DIR
                 (UTC) (F)     (DEG/KT/KT) (MB)    (FT/S) (FT/S/D)
BUOY 41004       0710   66 75   20/ 21/ 27 1012.4
BUOY 41008       0650   59 67   20/ 21/ 25 1012.2F   6/ 7   3/100/10
FOLLY BEACH CMAN 0700   50     360/ 10/ 13 1015.0F
CAPERS NEARSHORE 0708   49 61   20/ 16/ 21 1013.9F
FRIPP NEARSHORE  0708   49 62  350/ 12/ 23 1013.2F


STATION/POSITION TIME  TEMP    WIND        PRES    WAVE   SWELL
                       AIR SEA DIR/SP/G            HT/PER HT/PER/DIR
                 (UTC) (F)     (DEG/KT/KT) (MB)    (FT/S) (FT/S/D)
5E ST. MARYS GA  0700      66                N/A     7/ 6   2/100/11
FRYING PAN BUOY  0710   63 72   30/ 17/ 21 1013.8
BUOY 41025       0710   57 72   20/ 16/ 19 1016.3
CAPE LOOKOUT NC  0700           10/ 13/ 16 1016.4F
BUOY 41002       0650   69 76   50/ 17/ 21 1011.0F   9/ 8   5/ 50/13
BUOY 41010       NOT AVBL
ST AUGUSTINE FL  0700   62 68  360/ 27/ 31 1010.7F


$$




USA.gov is the U.S. government's official web portal to all federal, state and local government web resources and services.